Location: Airaines
(49.9683°N, 1.9427°E)
Time: 13:15:52
(UTC+00:00)

Daily predictions for brighter satellites

Satellite Brightness Start Highest point End
(mag) Time Altitude Azimuth Time Altitude Azimuth Time Altitude Azimuth
BREEZE-M DEB (TANK) 3.6 20:36:34 10° SW 20:40:04 47° SE 20:50:58 10° ENE
ARGOS Delta rocket 3.8 20:39:46 10° S 20:44:12 77° WSW 20:48:37 10° NNW
Cosmos 1733 Rocket 3.9 20:44:20 10° N 20:48:28 38° ENE 20:52:36 10° SE
SL-4 R/B 2.2 20:44:50 10° W 20:48:37 69° N 20:52:41 10° E
Cosmos 2278 4.1 20:43:38 10° NW 20:49:16 63° WSW 20:54:53 10° SSE
Cosmos 1300 3.0 20:50:15 10° N 20:53:42 45° ENE 20:57:07 10° SSE
S3M 4.1 20:47:33 10° N 20:53:59 84° E 21:00:18 10° S
Ariane Rocket 3.1 20:49:41 10° SSE 20:54:44 69° ENE 20:59:49 10° N
USA 281 4.5 20:49:29 10° ESE 20:55:05 31° NE 21:00:43 10° NNW
Timation 1 Rocket 4.5 20:50:40 10° S 20:56:27 56° ESE 21:02:17 10° NE
SL-27 R/B 3.3 20:54:50 10° SSE 20:57:02 22° ESE 20:59:16 10° NE
Okean-O 4.0 20:53:46 10° SSW 20:57:50 36° W 21:01:56 10° NNW
Cosmos 1441 Rocket 4.1 20:55:08 10° NNW 20:58:35 43° W 21:02:02 10° SSW
Cosmos 1400 Rocket 2.7 20:56:59 10° S 21:00:50 70° E 21:04:40 10° NNE
Cosmos 2219 Rocket 3.0 20:55:41 10° NNW 21:01:06 43° NE 21:06:29 10° ESE
Meteor 1-13 Rocket 4.4 20:55:43 10° SSW 21:01:31 84° WNW 21:07:13 10° N
COSMOS 2428 4.3 20:57:44 10° NNW 21:02:30 26° NE 21:07:15 10° E
BREEZE-M DEB (TANK) 2.0 21:01:51 10° W 21:03:52 49° SSW 21:06:33 10° ESE
Cosmos 1908 4.4 21:00:42 10° NNW 21:04:04 37° W 21:07:25 10° SSW
Cosmos 1356 Rocket 3.9 21:00:20 10° SSE 21:04:18 43° E 21:08:18 10° NNE
Cosmos 2266 Rocket 4.1 20:59:39 10° S 21:06:00 84° E 21:12:27 10° N
USA 245 3.7 21:02:55 10° S 21:06:30 69° WSW 21:11:04 10° NNW
ATLAS CENTAUR R/B 1.5 21:03:32 10° S 21:06:47 37° ESE 21:10:07 10° NE
Cosmos 1850 Rocket 4.1 21:03:48 10° S 21:08:54 56° ESE 21:13:59 10° NNE
Cosmos 1655 Rocket 4.1 21:05:17 10° S 21:11:37 67° E 21:17:57 10° NNE
Cosmos 1869 Rocket 4.4 21:08:18 10° NNW 21:12:38 51° W 21:16:56 10° S
Meteor 1-4 Rocket 3.6 21:13:07 12° SE 21:14:59 21° E 21:17:21 10° NE
Cosmos 2228 Rocket 3.2 21:10:49 10° S 21:15:18 62° E 21:19:50 10° NNE
MOS 1 Rocket 3.7 21:10:57 10° SSE 21:16:21 83° WSW 21:21:39 10° NNW
Okean O Rocket 4.3 21:14:51 10° WSW 21:17:15 14° W 21:19:38 10° NW
Cosmos 1953 3.6 21:14:38 10° NNE 21:17:55 26° ENE 21:20:51 12° SE
Cosmos 1315 Rocket 4.1 21:17:28 12° SE 21:20:16 24° E 21:23:32 10° NE
Cosmos 968 Rocket 3.7 21:17:24 10° S 21:22:22 51° ESE 21:27:23 10° NNE
SPOT 3 Rocket 3.7 21:18:33 10° S 21:23:41 77° WSW 21:28:53 10° NNW
SeaSat 1 3.1 21:19:21 10° S 21:24:04 48° WSW 21:28:50 10° NW
Cosmos 2360 Rocket 2.3 21:20:38 10° NNW 21:26:21 80° WSW 21:31:30 13° SSE
Cosmos 1741 Rocket 4.0 21:24:06 10° SSW 21:29:22 77° ESE 21:34:41 10° NNE
Cosmos 1242 Rocket 4.2 21:29:30 11° ESE 21:30:16 12° E 21:31:21 10° ENE
BlueWalker 3 3.6 21:31:50 14° SE 21:31:50 14° SE 21:33:51 10° E
Cosmos 1814 Rocket 4.1 21:27:21 10° NNW 21:32:41 79° ENE 21:37:16 14° SSE
MetOp-A 4.1 21:28:25 13° SSE 21:33:08 73° ENE 21:38:23 10° N
Landsat 4 4.2 21:30:20 10° S 21:33:40 48° W 21:37:01 10° NNW
SL-16 R/B 3.4 21:32:56 10° NW 21:38:01 35° WSW 21:43:06 10° S
Landsat 5 3.4 21:36:17 10° NNE 21:40:17 64° ESE 21:44:11 11° S
USA 234 3.2 21:34:22 10° ENE 21:40:57 78° SE 21:47:30 10° SW
Cosmos 2333 Rocket 2.5 21:36:32 10° NNW 21:42:15 67° WSW 21:47:09 14° SSE
SL-14 R/B 3.6 21:40:20 10° SSW 21:44:04 61° WNW 21:47:51 10° N
Cosmos 1862 Rocket 3.6 21:42:56 10° S 21:47:19 87° W 21:51:48 10° N
Cosmos 1346 Rocket 3.4 21:44:01 10° NNW 21:47:47 49° W 21:51:09 12° S
DNEPR-1 R/B 4.4 21:43:02 10° NW 21:49:56 85° SW 21:54:25 16° SE
Okean 3 3.4 21:46:08 12° S 21:50:00 82° E 21:54:12 10° NNE
Cosmos 1455 2.3 21:49:27 10° N 21:52:53 51° ENE 21:55:03 20° SSE
Cosmos 1408 4.4 21:55:12 11° E 21:55:54 12° E 21:56:59 10° ENE
Cosmos 1833 4.1 21:51:25 10° SSW 21:57:02 79° ESE 22:02:41 10° NNE
EXPRESS MD2 1.7 21:55:15 10° W 21:57:42 88° SSE 21:59:45 11° E
RESURS DK-1 4.3 21:56:22 10° WNW 21:59:26 21° WSW 22:02:29 10° SSW
CZ-4C R/B 3.5 21:58:28 13° ESE 21:59:29 14° ESE 22:02:02 10° ENE
Cosmos 2237 Rocket 3.7 21:56:29 10° NNW 22:01:24 29° NE 22:06:16 10° ESE
H-2A R/B 3.8 21:58:41 14° ESE 22:01:43 30° ENE 22:05:27 10° N
Cosmos 1932 4.5 21:57:19 10° SSW 22:03:35 65° ESE 22:09:48 10° NE
SJ 16-02 1.3 22:00:38 10° SSW 22:04:57 90° NE 22:09:18 10° NNE
Cosmos 2322 3.9 21:59:32 10° NNW 22:05:15 70° ENE 22:09:35 17° SE
Terra 3.6 22:01:54 10° SSW 22:05:45 25° W 22:09:38 10° NW
CZ-2C R/B 4.1 22:02:32 10° NNE 22:06:46 44° E 22:09:29 20° SSE
Aureole 3 4.0 22:07:01 11° SSW 22:10:54 64° WNW 22:15:55 10° N
Cosmos 2322 Rocket 3.7 22:15:33 10° NW 22:20:12 27° WSW 22:24:47 10° SSW
ARIANE 5 R/B 2.5 22:23:17 23° SSE 22:25:57 85° ENE 22:30:19 10° NNW
NOSS 5 (C) 4.2 22:23:15 10° NW 22:26:27 84° NE 22:27:59 28° SE
ATLAS 2AS CENTAUR R/B 3.5 22:20:56 10° NW 22:27:07 38° WSW 22:31:35 17° S
SL-4 R/B 1.9 22:23:36 10° WNW 22:27:33 87° NNE 22:31:47 10° ESE
Cosmos 2297 Rocket 3.5 22:27:17 18° SE 22:29:36 23° ESE 22:33:53 10° NE
Okean 1-7 3.5 22:30:05 14° SSW 22:33:41 58° WNW 22:37:58 10° N
USA 281 3.3 22:34:22 20° SSE 22:39:06 76° WSW 22:45:44 10° NNW
Cosmos 1745 Rocket 4.1 22:34:59 20° S 22:39:33 72° E 22:45:55 10° NNE
Cosmos 1908 Rocket 4.1 22:36:38 10° NNW 22:40:50 49° W 22:43:32 20° SSW
GP-B 3.2 22:36:39 10° N 22:41:05 76° W 22:43:51 22° S
Cosmos 1782 Rocket 3.5 22:39:27 10° N 22:43:48 86° W 22:46:09 27° S
Spot 4 4.0 22:41:21 23° SSE 22:44:15 68° ENE 22:49:03 10° N
ATLAS CENTAUR R/B 3.1 22:41:22 10° W 22:44:29 28° NW 22:47:43 10° NNE
Cosmos 2219 Rocket 3.0 22:39:46 10° NW 22:45:02 40° WSW 22:48:35 19° SSW
Nadezhda 1 Rocket 4.0 22:39:56 10° N 22:46:16 81° W 22:50:31 22° S
Okean 2 4.4 22:43:49 13° SW 22:47:06 41° WNW 22:50:56 10° N
COSMOS 2428 2.7 22:41:38 10° NNW 22:47:20 75° WSW 22:50:54 24° SSE
Meteor 1-4 Rocket 4.4 22:45:25 10° WSW 22:47:46 21° WNW 22:50:09 10° NNW
Meteor 2-5 Rocket 4.5 22:46:15 21° SSE 22:49:38 41° E 22:55:03 10° NNE
BREEZE-M DEB (TANK) 2.7 22:47:49 10° W 22:51:48 47° N 22:53:52 10° ENE
Cosmos 1953 3.7 22:50:24 10° NNW 22:53:43 28° W 22:55:58 16° SW
Cosmos 2098 Rocket 4.5 22:48:00 10° N 22:54:30 55° ENE 22:58:50 21° SE
Cosmos 1315 Rocket 4.3 22:52:43 10° SW 22:56:16 33° WNW 22:59:56 10° N
H-2A R/B 3.8 22:54:45 10° NE 22:57:39 18° E 22:59:07 15° ESE
PSLV R/B 3.9 22:55:24 10° N 22:59:24 75° WNW 23:01:43 24° SSW
Cosmos 1300 Rocket 3.6 22:56:40 10° NNW 23:00:58 69° W 23:03:09 28° S
Cosmos 1242 Rocket 3.4 23:00:40 20° WSW 23:01:59 30° WNW 23:04:29 10° N
Cosmos 304 Rocket 4.2 23:03:17 27° SSE 23:05:24 46° ESE 23:09:58 10° NE
Cosmos 158 Rocket 4.2 23:02:10 10° NNW 23:07:23 59° WSW 23:10:13 26° S
Cosmos 2151 Rocket 4.4 23:04:54 10° N 23:09:05 40° ENE 23:11:26 22° SE
BlueWalker 3 1.7 23:06:00 12° SW 23:09:21 64° SSE 23:13:04 10° ENE
Cosmos 2360 Rocket 4.4 23:06:31 10° WNW 23:09:24 14° W 23:12:15 10° SW
Cosmos 405 Rocket 3.2 23:06:49 10° N 23:10:30 49° ENE 23:12:07 28° SE
Okean 2 Rocket 3.9 23:11:22 10° N 23:15:38 43° ENE 23:18:04 23° SE
ALOS 2 2.5 23:14:27 30° SSE 23:16:36 85° WSW 23:21:02 10° NNW
Cosmos 1674 Rocket 4.5 23:20:04 25° SE 23:21:53 36° E 23:25:52 10° NNE
Cosmos 1378 Rocket 4.2 23:20:47 27° SE 23:22:36 43° E 23:26:46 10° NNE
COSMOS 2455 2.8 23:18:34 19° SSW 23:22:57 75° ESE 23:29:00 10° NE
USA 234 4.0 23:17:28 10° ENE 23:23:50 56° NNW 23:30:12 10° W
NOSS 0 Rocket 4.2 23:19:58 10° NW 23:26:06 59° WSW 23:29:40 25° S
CENTAUR R/B 3.5 23:24:42 21° SE 23:26:54 26° ESE 23:32:18 10° ENE
Cosmos 1408 3.1 23:27:13 27° WSW 23:28:15 37° WNW 23:31:05 10° N
Cosmos 773 Rocket 4.0 23:24:13 10° NNW 23:29:20 69° WSW 23:32:01 28° S
Cosmos 1703 3.3 23:34:51 32° SSW 23:36:22 65° WNW 23:40:02 10° N
H-2A R/B 3.6 23:34:40 23° SW 23:36:35 33° W 23:40:28 10° NNW
Cosmos 2221 Rocket 4.1 23:34:53 28° SSE 23:36:49 46° E 23:41:05 10° NNE
Cosmos 1892 3.1 23:37:30 33° SE 23:38:28 42° E 23:41:50 10° NNE
Cosmos 1709 Rocket 4.3 23:34:37 20° SSW 23:39:06 65° WNW 23:45:27 10° N
SL-16 R/B 3.2 23:33:41 10° NNW 23:39:09 44° NE 23:44:35 10° SE
Cosmos 1174 4.0 23:34:20 10° NW 23:39:28 90° NE 23:41:41 28° SE
Sich 1 Rocket 3.6 23:36:54 10° N 23:41:19 75° E 23:43:22 31° SSE
Cosmos 2242 Rocket 4.3 23:39:46 21° SW 23:42:30 48° WNW 23:46:57 10° N
SJ 16-02 4.0 23:41:32 10° W 23:43:57 15° NW 23:46:25 10° NNW
Cosmos 2237 Rocket 2.3 23:40:17 10° NNW 23:45:55 65° WSW 23:48:59 27° S
Cosmos 1777 Rocket 4.0 23:43:34 27° SSW 23:46:30 77° ESE 23:51:47 10° NNE
CZ-4C R/B 1.9 23:43:30 22° SW 23:46:35 86° SE 23:52:25 10° NE
Cosmos 1503 Rocket 4.0 23:43:28 25° SSW 23:46:39 89° ESE 23:51:59 10° NNE
BREEZE-M DEB (TANK) 2.8 23:38:38 10° W 23:48:20 78° SSW 23:51:26 10° ESE
Cosmos 2227 Rocket 2.6 23:50:16 27° S 23:53:06 51° ESE 23:58:35 10° NE
GEOS 3 Rocket 4.3 23:50:03 10° NE 23:54:49 37° ESE 23:56:49 27° SSE
